Weather Service Report


366 
ASUS43 KLSX 030007
RWRMO 

WEATHER SUMMARY FOR MISSOURI
NATIONAL WEATHER SERVICE SPRINGFIELD MO
700 PM CDT THU JUL 02 2015

NOTE: "FAIR" INDICATES FEW OR NO CLOUDS BELOW 12,000 FEET WITH NO
       SIGNIFICANT WEATHER AND/OR OBSTRUCTIONS TO VISIBILITY.
       CURRENT SKY AND/OR WEATHER CONDITIONS ARE NOT AVAILABLE FOR
       CHILLICOTHE AND FARMINGTON.

MOZ001>031-035>038-043-044-053-054-030100-
...NORTHERN AND WESTERN MISSOURI...
  
CITY           SKY/WX    TMP DP  RH WIND       PRES   REMARKS
KANSAS CTY INT CLOUDY    69  67  93 E8        29.92S FOG              
6HR MIN TEMP:  69; 6HR MAX TEMP:  72; 6HR PCP:  0.01;                

KANSAS C DTWN  CLOUDY    72  67  84 E9        29.90F                  
6HR MIN TEMP:  72; 6HR MAX TEMP:  74;                                

LEE'S SUMMIT   CLOUDY    72  66  81 E7        29.92F                  
6HR MIN TEMP:  71; 6HR MAX TEMP:  73; 6HR PCP: TRACE;                

ST JOSEPH      CLOUDY    70  67  90 E7        29.92F                  
6HR MIN TEMP:  69; 6HR MAX TEMP:  73; 6HR PCP:  0.06;                

CHILLICOTHE      N/A     73  64  73 CALM      29.93F                  
6HR MIN TEMP:  72; 6HR MAX TEMP:  75;                                

KIRKSVILLE     CLOUDY    67  59  75 NE8       29.95F                  
6HR MIN TEMP:  67; 6HR MAX TEMP:  73; 6HR PCP: TRACE;                

     
$$
MOZ066>068-077>081-088>096-101>105-030100-
...SOUTHWEST MISSOURI...
  
CITY           SKY/WX    TMP DP  RH WIND       PRES   REMARKS
SPRINGFIELD    LGT RAIN  78  71  79 NE8       29.89R                  
6HR MIN TEMP:  78; 6HR MAX TEMP:  85; 6HR PCP: TRACE;                

JOPLIN         LGT RAIN  78  73  84 VRB3      29.89F                  
6HR MIN TEMP:  78; 6HR MAX TEMP:  86; 6HR PCP: TRACE;                

               
$$
MOZ032>034-039>042-045>050-055>058-069>072-030100-
...CENTRAL MISSOURI...  
  
CITY           SKY/WX    TMP DP  RH WIND       PRES   REMARKS
COLUMBIA       CLOUDY    73  66  78 NE6       29.90F                  
6HR MIN TEMP:  73; 6HR MAX TEMP:  76;                                

JEFFERSON CITY CLOUDY    74  65  73 NE6       29.89R                  
6HR MIN TEMP:  72; 6HR MAX TEMP:  76;                                

ROLLA          CLOUDY    72  67  84 NE5       29.89S                  
6HR MIN TEMP:  71; 6HR MAX TEMP:  74;                                

SEDALIA        CLOUDY    73  66  78 NE5       29.92R                  
6HR MIN TEMP:  73; 6HR MAX TEMP:  77; 6HR PCP: TRACE;                

WHITEMAN AFB   CLOUDY    72  67  84 NE7       29.89F                  
WARRENSBURG    CLOUDY    72  64  78 NE5       29.90F                  
OSAGE BEACH    CLOUDY    73  66  78 NE7       29.90S                  
               
$$
MOZ051-052-059>065-030100-
...EAST CENTRAL MISSOURI...
  
CITY           SKY/WX    TMP DP  RH WIND       PRES   REMARKS
ST LOUIS INTL  CLOUDY    76  63  64 N9        29.88F                  
6HR MIN TEMP:  72; 6HR MAX TEMP:  78;                                

SPIRIT OF STL  CLOUDY    75  66  73 NE7       29.87F                  
6HR MIN TEMP:  72; 6HR MAX TEMP:  77;                                

ST CHARLES     CLOUDY    73  65  75 NE13      29.88S                  
6HR MIN TEMP:  73; 6HR MAX TEMP:  78;                                

                   
$$
MOZ072>076-082>087-097>100-106>115-030100-
...SOUTH CENTRAL AND SOUTHEAST MISSOURI...
  
CITY           SKY/WX    TMP DP  RH WIND       PRES   REMARKS
CAPE GIRARDEAU PTSUNNY   79  71  76 N8        29.83R                  
6HR MIN TEMP:  76; 6HR MAX TEMP:  83; 6HR PCP:  0.05;                

FARMINGTON     CLOUDY    72  68  88 N3        29.93R                  
6HR MIN TEMP:  72; 6HR MAX TEMP:  77;                                

POPLAR BLUFF   CLOUDY    81  73  76 E3        29.82R                  
6HR MIN TEMP:  81; 6HR MAX TEMP:  86;                                

WEST PLAINS    PTSUNNY   80  72  76 N6        29.88S                  
6HR MIN TEMP:  80; 6HR MAX TEMP:  85;                                

                                       
$$

Return to Home page


Western Regional Climate Center, wrcc@dri.edu